www.pogodaiklimat.ru

Погода и климат >> Архив погоды >> Норвегия >> Рост аэропорт


ПОГОДА в Рост аэропорту

  • Прогноз погоды в Рост аэропорту
  • Монитор погоды в Рост аэропорту

АРХИВ ПОГОДЫ в Рост аэропорту

Время (UTC), дата Ветер
(напр.,м/с)
 
Видим.   Явления Облачность Т
(С)
Тd
(С)
f
(%)
Тe
(С)
Тes
(С)
Комфортность P
(гПа)
Po
(гПа)
Тmin
(С)
Tmax
(С)
R
(мм)
R24
(мм)
S
(см)
10 15.01 С 8
{11}
н/о н/о -2.6 -3.0 97 -11 -11 991.1 990.7
11 15.01 С 8
{10}
н/о н/о -2.5 -2.7 99 -11 -11 990.9 990.5
12 15.01 С 7
{11}
н/о н/о -2.8 -3.0 99 -11 -11 991.1 990.7 4
13 15.01 СЗ 6
{10}
н/о н/о -3.4 -3.8 97 -11 -11 991.2 990.8
14 15.01 С 3
{5}
н/о н/о -3.0 -3.4 97 -8 -8 991.3 990.9
15 15.01 СЗ 6
{9}
н/о н/о -2.7 -2.9 99 -10 -10 991.5 991.2
16 15.01 СЗ 7
{10}
н/о н/о -3.1 -3.3 99 -11 -11 991.8 991.4
17 15.01 С 5
{8}
н/о н/о -2.2 -2.4 99 -9 -9 991.7 991.3
18 15.01 СЗ 10
{13}
н/о н/о -2.6 -3.0 97 -12 -12 991.6 991.3 -3.4 -2.0 8
19 15.01 СЗ 8
{12}
н/о н/о -2.0 -2.2 99 -10 -10 991.9 991.6
20 15.01 СЗ 7
{11}
н/о н/о -1.9 -2.5 96 -10 -10 992.2 991.8
21 15.01 С 7
{10}
н/о н/о -1.7 -2.7 93 -9 -9 992.6 992.2
22 15.01 З 6
{9}
н/о н/о -2.9 -6.7 75 -10 -10 992.7 992.3
23 15.01 СЗ 6
{8}
н/о н/о -3.2 -8.2 68 -10 -10 992.9 992.5
00 16.01 СЗ 4
{12}
н/о н/о -3.1 -7.8 70 -9 -9 993.0 992.6
01 16.01 З 4
{6}
н/о н/о -3.3 -8.7 66 -9 -9 992.9 992.5
02 16.01 З 3
{5}
н/о н/о -3.2 -9.3 63 -8 -8 993.0 992.6
03 16.01 З 2
{4}
н/о н/о -4.3 -9.3 68 -8 -8 992.8 992.4
04 16.01 штиль 0
{3}
н/о н/о -3.7 -10.4 60 -4 -4 992.4 992.0
05 16.01 штиль 0
{1}
н/о н/о -3.9 -9.2 67 -5 -5 992.1 991.8
06 16.01 С 1
{6}
н/о н/о -2.0 -9.4 57 -4 -4 991.9 991.5 -4.6 -1.6
07 16.01 СВ 4
{6}
н/о н/о -1.3 -4.6 78 -7 -7 991.9 991.5
08 16.01 С 2
{6}
н/о н/о -1.7 -6.8 68 -5 -5 991.7 991.4
09 16.01 СВ 2
{4}
н/о н/о -1.3 -6.2 69 -5 -5 991.8 991.4
10 16.01 В 4
{5}
н/о н/о -0.9 -4.6 76 -6 -6 991.7 991.3
11 16.01 В 4
{6}
н/о н/о -1.1 -4.2 79 -7 -7 991.4 991.1
12 16.01 В 4
{6}
н/о н/о -1.1 -4.4 78 -7 -7 991.1 990.8 0.7
13 16.01 В 3
{5}
н/о н/о -0.6 -4.8 73 -5 -5 990.8 990.4
14 16.01 В 3
{7}
н/о н/о -1.0 -5.4 72 -6 -6 990.5 990.1
15 16.01 В 3
{5}
н/о н/о -1.0 -6.5 66 -5 -5 990.5 990.1
16 16.01 СВ 3
{4}
н/о н/о -0.8 -6.1 67 -5 -5 990.3 989.9
17 16.01 СВ 3
{4}
н/о н/о -0.8 -5.7 69 -5 -5 990.0 989.6
18 16.01 С 2
{7}
н/о н/о -0.6 -6.1 66 -4 -4 989.9 989.5 -4.9 -0.5 0.7
19 16.01 С 4
{5}
н/о н/о -0.3 -6.5 63 -5 -5 989.9 989.5
20 16.01 СЗ 5
{8}
н/о н/о 0.0 -4.9 70 -6 -6 989.8 989.4
21 16.01 СЗ 9
{14}
н/о н/о -0.9 -1.5 96 -9 -9 989.9 989.5
22 16.01 СВ 9
{12}
н/о н/о 0.0 -2.4 84 -8 -8 989.7 989.4
23 16.01 В 7
{12}
н/о н/о -0.6 -3.0 84 -8 -8 990.3 989.9
00 17.01 СВ 4
{14}
н/о н/о -0.2 -4.1 75 -5 -5 990.2 989.9 0.7
01 17.01 СВ 3
{8}
н/о н/о -0.5 -3.0 83 -5 -5 990.0 989.6
02 17.01
{9}
н/о н/о -0.6 -4.3 76 990.2 989.8
03 17.01 СВ 6
{9}
н/о н/о -0.8 -2.3 90 -8 -8 990.5 990.1
04 17.01 СВ 3 н/о н/о -1.0 -2.4 90 -6 -6 990.5 990.2
05 17.01 С 4
{5}
н/о н/о -0.5 -3.5 80 -6 -6 990.2 989.9
06 17.01 С 7
{9}
н/о н/о -0.6 -1.3 95 -8 -8 990.2 989.8 -1.5 +0.3 1
07 17.01 С 5
{10}
н/о н/о -1.0 -1.6 96 -8 -8 990.4 990.0
08 17.01 С 11
{19}
н/о н/о -0.4 -0.5 99 -9 -9 990.8 990.4
09 17.01 С 17
{22}
н/о н/о +1.2 -2.5 76 -8 -8 990.9 990.5
10 17.01 С 15
{21}
н/о н/о +1.5 -3.3 70 -7 -7 991.2 990.8
11 17.01 СЗ 16
{19}
н/о н/о +1.0 -3.8 70 -8 -8 991.3 990.9
12 17.01 СЗ 15
{22}
н/о н/о +1.0 -5.6 61 -8 -8 991.2 990.9 1
13 17.01 СЗ 15
{20}
н/о н/о -1.5 -2.1 96 -12 -12 991.6 991.2
14 17.01 СЗ 15
{20}
н/о н/о -0.2 -3.0 81 -10 -10 991.4 991.0
15 17.01 СЗ 14
{18}
н/о н/о +0.7 -6.1 60 -8 -8 991.4 991.1
16 17.01 СЗ 11
{16}
н/о н/о +0.5 -5.1 66 -7 -7 991.6 991.2
17 17.01 СЗ 8
{13}
н/о н/о +0.2 -5.6 65 -7 -7 991.4 991.0
18 17.01 СЗ 9
{20}
н/о н/о +0.6 -4.2 70 -7 -7 991.4 991.1 -1.6 +1.6 1
19 17.01 С 10
{15}
н/о н/о +1.0 -3.3 73 -7 -7 991.5 991.1
20 17.01
{17}
н/о н/о +0.1 -1.3 90 991.8 991.5
21 17.01 С 15
{17}
н/о н/о +0.1 -1.3 90 -10 -10 992.1 991.7
22 17.01 С 14
{20}
н/о н/о +2.1 -4.2 63 -6 -6 992.6 992.2
23 17.01 С 14
{17}
н/о н/о +2.1 -4.8 60 -6 -6 993.2 992.8
00 18.01 СЗ 12
{20}
н/о н/о +1.6 -4.2 65 -6 -6 993.6 993.2
01 18.01 С 13
{18}
н/о н/о +1.2 -3.4 71 -7 -7 993.8 993.4
02 18.01 С 12
{17}
н/о н/о +1.0 -3.8 70 -7 -7 994.1 993.7
03 18.01 С 12
{16}
н/о н/о +0.8 -3.8 71 -7 -7 994.4 994.0
04 18.01 СЗ 14
{17}
н/о н/о +1.3 -5.4 61 -7 -7 994.6 994.3
05 18.01 С 12
{16}
н/о н/о +1.5 -7.0 53 -6 -6 994.9 994.5
06 18.01 СЗ 13
{18}
н/о н/о +1.6 -6.2 56 -6 -6 995.1 994.7 -0.2 +2.2
07 18.01 СЗ 13
{17}
н/о н/о +1.3 -6.5 56 -7 -7 995.6 995.2
08 18.01 С 14
{21}
н/о н/о +0.4 -4.2 71 -8 -8 996.6 996.2
09 18.01 С 12
{16}
н/о н/о +1.1 -5.8 60 -7 -7 997.0 996.6
10 18.01 С 9
{14}
н/о н/о +0.9 -4.1 69 -6 -6 997.4 997.1
11 18.01 С 13
{16}
н/о н/о -0.3 -2.7 84 -9 -9 997.8 997.4
12 18.01 СЗ 9
{21}
н/о н/о +0.1 -4.0 74 -8 -8 998.2 997.9 0.4
13 18.01 СЗ 8
{15}
н/о н/о +0.1 -4.1 73 -7 -7 998.4 998.0
14 18.01 СЗ 12
{17}
н/о н/о -2.5 -3.5 93 -12 -12 999.1 998.7
15 18.01 СЗ 7
{15}
н/о н/о -1.0 -4.1 79 -8 -8 998.9 998.6
16 18.01 СЗ 13
{19}
н/о н/о -0.6 -5.9 67 -10 -10 999.4 999.0
17 18.01 З 11
{16}
н/о н/о -0.6 -6.6 64 -9 -9 999.3 998.9
18 18.01 СЗ 11
{19}
н/о н/о -0.4 -5.5 68 -9 -9 999.0 998.6 -2.6 +1.6 0.6
19 18.01 З 12
{15}
н/о н/о -0.7 -6.7 64 -9 -9 998.7 998.3
20 18.01 СЗ 15
{17}
н/о н/о -0.7 -4.8 74 -10 -10 998.8 998.4
21 18.01 СЗ 11
{17}
н/о н/о -0.5 -4.2 76 -9 -9 998.8 998.4
22 18.01 СЗ 10
{15}
н/о н/о -1.6 -4.2 82 -10 -10 999.0 998.7
23 18.01 СЗ 7
{15}
н/о н/о -0.9 -5.0 74 -8 -8 998.9 998.5
00 19.01 СЗ 8
{17}
н/о н/о -0.9 -5.6 70 -8 -8 998.8 998.4 0.2
01 19.01 СЗ 9
{13}
н/о н/о -1.1 -5.7 71 -9 -9 998.6 998.2
02 19.01 СЗ 12
{16}
н/о н/о -1.9 -4.4 83 -11 -11 998.5 998.2
03 19.01 С 5
{12}
н/о н/о -1.7 -5.4 76 -8 -8 998.2 997.8
04 19.01 С 4
{8}
н/о н/о -1.5 -5.5 74 -7 -7 998.2 997.8
05 19.01 С 10
{15}
н/о н/о -1.4 -4.8 78 -10 -10 998.5 998.2
06 19.01 СЗ 12
{16}
н/о н/о -0.7 -4.1 78 -10 -10 998.8 998.4 -2.1 -0.2 1
07 19.01 С 14
{19}
н/о н/о -1.5 -3.2 88 -11 -11 999.5 999.1
08 19.01 СЗ 12
{19}
н/о н/о -1.4 -3.9 83 -11 -11 1000.1 999.8
09 19.01 СЗ 15
{19}
н/о н/о +0.3 -3.9 73 -9 -9 1000.2 999.8
10 19.01 СЗ 13
{23}
н/о н/о -0.1 -2.9 81 -9 -9 1000.9 1000.5
11 19.01 С 14
{17}
н/о н/о -0.4 -2.5 86 -10 -10 1001.3 1000.9
12 19.01 С 12
{23}
н/о н/о -1.9 -2.4 96 -12 -12 1002.5 1002.2 0.5
13 19.01 С 8
{13}
н/о н/о -0.9 -2.2 91 -9 -9 1002.9 1002.6
14 19.01 С 8
{14}
н/о н/о -1.2 -3.9 82 -9 -9 1003.4 1003.1
15 19.01 СЗ 6
{8}
н/о н/о -0.5 -3.6 80 -7 -7 1003.7 1003.3
16 19.01 С 5
{10}
н/о н/о -0.2 -4.5 73 -6 -6 1004.3 1004.0
17 19.01 СЗ 5
{6}
н/о н/о -0.4 -4.5 74 -6 -6 1005.1 1004.7
18 19.01
{14}
н/о н/о -1.5 -3.2 88 1006.0 1005.6 -2.1 +0.9 0.5
19 19.01 З 3
{7}
н/о н/о -1.2 -4.0 81 -6 -6 1006.5 1006.1
20 19.01 З 6
{9}
н/о н/о -0.2 -3.8 77 -7 -7 1006.8 1006.4
21 19.01 СЗ 5
{9}
н/о н/о -0.4 -3.5 80 -6 -6 1007.4 1007.1
22 19.01 СВ 5
{10}
н/о н/о -0.6 -3.1 83 -7 -7 1007.9 1007.6
23 19.01 С 6
{10}
н/о н/о -1.2 -2.7 90 -8 -8 1008.5 1008.1
00 20.01 З 6
{10}
н/о н/о -0.7 -2.6 87 -8 -8 1008.9 1008.5 0.2
01 20.01 СЗ 9
{11}
н/о н/о -0.7 -3.1 84 -9 -9 1009.1 1008.7
02 20.01 СЗ 10
{15}
н/о н/о -2.0 -2.9 94 -11 -11 1009.7 1009.3
03 20.01 С 6
{14}
н/о н/о -1.3 -2.4 92 -8 -8 1009.6 1009.2
04 20.01 С 7 н/о н/о -0.9 -3.3 84 -8 -8 1009.7 1009.4
05 20.01 С 8
{15}
н/о н/о -0.8 -4.5 76 -8 -8 1010.1 1009.7
06 20.01 СЗ 10
{15}
н/о н/о -0.5 -6.5 64 -8 -8 1010.2 1009.8 -2.8 0.0 2
07 20.01 С 10
{17}
н/о н/о -0.7 -4.8 74 -9 -9 1010.6 1010.2
08 20.01 С 11
{13}
н/о н/о -0.2 -3.3 80 -9 -9 1010.8 1010.4
09 20.01 С 8
{14}
н/о н/о 0.0 -4.8 70 -7 -7 1011.2 1010.8
10 20.01 СЗ 7
{14}
н/о н/о -1.1 -3.8 82 -8 -8 1011.6 1011.2
11 20.01 С 6
{14}
н/о н/о -0.9 -3.4 83 -8 -8 1011.6 1011.2
12 20.01 С 11
{17}
н/о н/о -1.3 -2.8 90 -10 -10 1011.8 1011.5 0.3
13 20.01 С 4
{13}
н/о н/о -0.7 -3.5 81 -6 -6 1011.7 1011.4
14 20.01 С 6
{13}
н/о н/о -0.3 -4.2 75 -7 -7 1011.9 1011.6
15 20.01 С 6
{9}
н/о н/о +0.3 -4.9 68 -6 -6 1011.7 1011.3
16 20.01 С 5
{10}
н/о н/о +0.3 -7.0 58 -5 -5 1011.8 1011.4
17 20.01 С 5
{7}
н/о н/о +0.1 -5.7 65 -6 -6 1011.8 1011.5
18 20.01 СЗ 3
{13}
н/о н/о +0.2 -5.6 65 -4 -4 1011.8 1011.4 -1.8 +0.3 0.3
19 20.01 СЗ 5
{6}
н/о н/о -0.1 -4.2 74 -6 -6 1011.8 1011.5
20 20.01 Ю 1
{5}
н/о н/о -0.5 -5.3 70 -2 -2 1012.0 1011.6
21 20.01 ЮЗ 3
{6}
н/о н/о -0.4 -4.0 77 -5 -5 1012.0 1011.7
22 20.01 Ю 4
{5}
н/о н/о -1.3 -3.5 85 -7 -7 1012.1 1011.7
23 20.01 ЮЗ 4
{7}
н/о н/о -2.5 -3.9 90 -9 -9 1012.1 1011.8
00 21.01 ЮЗ 4
{7}
н/о н/о -1.4 -2.9 90 -7 -7 1012.1 1011.7
01 21.01 ЮЗ 3
{5}
н/о н/о -2.4 -4.3 87 -8 -8 1012.1 1011.7
02 21.01 З 2
{5}
н/о н/о -0.7 -4.6 75 -4 -4 1012.1 1011.7
03 21.01 Ю 1
{3}
н/о н/о -0.8 -5.5 70 -3 -3 1012.1 1011.7
04 21.01 ЮЗ 3 н/о н/о -1.2 -4.5 78 -6 -6 1012.0 1011.6
05 21.01 ЮЗ 3
{4}
н/о н/о -2.3 -5.5 79 -7 -7 1012.0 1011.6
06 21.01 ЮЗ 3
{5}
н/о н/о -2.6 -6.0 77 -8 -8 1012.1 1011.7 -2.9 +0.2
07 21.01 ЮЗ 1
{3}
н/о н/о -1.2 -5.3 74 -3 -3 1012.2 1011.8
08 21.01 ЮЗ 2
{2}
н/о н/о -1.1 -5.3 73 -5 -5 1012.5 1012.1
09 21.01 ЮЗ 1
{2}
н/о н/о -1.0 -5.6 71 -3 -3 1012.7 1012.3
10 21.01 ЮЗ 2
{3}
н/о н/о -0.8 -4.4 77 -4 -4 1012.7 1012.3
11 21.01 ЮЗ 2
{4}
н/о н/о -1.1 -4.2 79 -5 -5 1012.5 1012.2
12 21.01 Ю 2
{4}
н/о н/о -1.2 -4.5 78 -5 -5 1012.2 1011.8 0.5
13 21.01 ЮВ 2
{3}
н/о н/о -1.2 -4.3 79 -5 -5 1011.6 1011.2
14 21.01 Ю 3
{5}
н/о н/о -1.1 -4.4 78 -6 -6 1011.5 1011.1
15 21.01 Ю 3
{4}
н/о н/о -0.3 -3.9 77 -5 -5 1011.4 1011.0
16 21.01 Ю 5
{7}
н/о н/о +0.3 -4.5 70 -5 -5 1011.4 1011.0
17 21.01 Ю 4
{6}
н/о н/о +0.2 -5.6 65 -5 -5 1011.2 1010.8
18 21.01 Ю 4
{7}
н/о н/о +0.2 -5.2 67 -5 -5 1010.8 1010.4 -2.5 +0.7 0.5
19 21.01 ЮВ 4
{6}
н/о н/о +0.4 -5.6 64 -5 -5 1010.4 1010.0
20 21.01 ЮВ 4
{7}
н/о н/о -0.3 -5.2 69 -6 -6 1010.3 1010.0
21 21.01 В 4
{6}
н/о н/о -0.4 -4.6 73 -6 -6 1009.9 1009.5
22 21.01 В 3
{5}
н/о н/о -0.2 -4.3 74 -5 -5 1009.5 1009.1
23 21.01 ЮВ 3
{4}
н/о н/о -0.9 -5.1 73 -6 -6 1009.1 1008.7
00 22.01 ЮВ 2
{7}
н/о н/о -0.9 -4.3 78 -5 -5 1008.8 1008.4
01 22.01 Ю 2
{3}
н/о н/о -1.0 -5.4 72 -5 -5 1008.5 1008.2
02 22.01 Ю 3
{4}
н/о н/о -0.6 -5.7 68 -5 -5 1008.3 1007.9
03 22.01 Ю 3
{5}
н/о н/о -0.2 -6.6 62 -4 -4 1007.9 1007.5
04 22.01 Ю 2
{4}
н/о н/о -1.0 -7.6 61 -4 -4 1007.5 1007.1
05 22.01 ЮВ 3
{4}
н/о н/о -1.3 -7.5 63 -6 -6 1007.0 1006.6
06 22.01 Ю 3
{5}
н/о н/о -0.4 -6.6 63 -5 -5 1006.7 1006.3 -2.1 +0.6
07 22.01 Ю 3
{5}
н/о н/о -0.3 -6.3 64 -5 -5 1006.7 1006.3
08 22.01 Ю 4
{5}
н/о н/о -0.7 -6.7 64 -6 -6 1006.6 1006.2
09 22.01 Ю 3
{5}
н/о н/о -1.0 -7.0 64 -5 -5 1006.5 1006.1

 

Местоположение метеостанции Рост аэропорт (Норвегия): широта 67.52 долгота 12.10 высота над уровнем моря 4 м.

В архиве по умолчанию представлена погода в Рост аэропорту за последнюю неделю. Архивные данные за месяц целиком и за предыдущие месяцы, начиная с января 2011 года, Вы можете получить, выбрав интересующий диапазон дат из раскрывающегося списка и нажав кнопку "Ввод!".


*Определитесь, кто Вы:
робот инопланетянин человек

Внимание! Время в таблицах - всемирное. Для получения местного времени необходимо прибавить поправку, которая равна 1 ч.

Смотрите также архив погоды в соседних городах и на ближайших метеорологических станциях:

Погода в Аэропорту Vaeroy Heliport (Норвегия) (30 км)
Погода в Хеллигвере (Норвегия) (78 км)
Погода на Мыкене (Норвегия) (85 км)
Погода в Лекнесе (Норвегия) (96 км)
Погода в Рейпе (Норвегия) (96 км)
Погода в Бодо (Норвегия) (101 км)
Погода на Маяке Skrova (Норвегия) (128 км)
Погода в Солвер III (Норвегия) (130 км)
Погода в Сволваер аэропорту (Норвегия) (135 км)
Погода в Сетсе (Норвегия) (150 км)

Пояснения к столбцам:

Ветер - указаны скорость ветра в м/с - средняя за 10 мин, порывы в срок и между сроками (в фигурных скобках) и направление, откуда дует ветер: С - северный, СВ - северо-восточный, В - восточный, ЮВ - юго-восточный, Ю - южный, ЮЗ - юго-западный, З - западный, СЗ - северо-западный.
Видимость - горизонтальная дальность видимости в метрах или километрах. При видимости от 1 до 10 км при отсутствии осадков обычно наблюдается дымка, при ухудшении видимости до 1 км и менее - туман. В сухую погоду видимость может ухудшаться дымом, пылью или мглою.
Явления - указаны атмосферные явления, наблюдавшиеся в срок или в последний час перед сроком; фигурными скобками обозначены явления, наблюдавшиеся между сроками (за 1-3 часа до срока); квадратными скобками обозначены град или гололедные отложения с указанием их диаметра в мм.
Облачность - указаны через наклонную черту общая и нижняя облачность в баллах и высота нижней границы облаков в метрах; квадратными скобками обозначены формы облаков: Ci - перистые, Cs - перисто-слоистые, Cc - перисто-кучевые, Ac - высококучевые, As - высокослоистые, Sc - слоисто-кучевые, Ns - слоисто-дождевые, Cu - кучевые, Cb - кучево-дождевые. Подробнее классификацию облаков см. в Атласе облаков (PDF).
T - Температура воздуха - температура, измеренная на высоте 2 м над землей.
Td - Температура точки росы - температура, при понижении до которой содержащийся в воздухе водяной пар достигнет насыщения.
f - Относительная влажность воздуха - влажноcть воздуха, измеренная на высоте 2 м над землей.
Te - Эффективная температура - температура, которую ощущает одетый по сезону человек в тени. Характеристика душности погоды. При расчете учитывается влияние влажности воздуха и скорости ветра на теплоощущения человека.
Tes - Эффективная температура на солнце - температура, которую ощущает человек, с поправкой на солнечный нагрев. Характеристика знойности погоды. Зависит от высоты солнца над горизонтом, облачности и скорости ветра. Ночью, в пасмурную погоду, а также при ветре 12 м/с и более поправка равна нулю.
P - Атмосферное давление - приведенное к уровню моря атмосферное давление.
Po - Атмосферное давление - измеренное на уровне метеостанции атмосферное давление.
Tmin - Минимальная температура - минимум температуры воздуха на высоте 2 м над землей.
Tmax - Максимальная температура - максимум температуры воздуха на высоте 2 м над землей.
R - Количество осадков - Количество выпавших осадков за период времени, мм. При наведении курсора мыши на число - период времени, за который выпало указанное количество осадков.
R24 - Количество осадков - Количество выпавших осадков за 24 часа, мм.
S - Снежный покров - Высота снежного покрова, см. При наведении курсора мыши на число - состояние снежного покрова и степень покрытия местности в баллах.